Location: Poughquag
(41.6090°N, 73.6820°W)
Time: 02:59:47
(UTC-04:00)

Explorer 11/Cluster Stage 4 - Pass Details

Date: 07 June 2020
Orbit: 467 x 1259 km, 28.8° (Epoch: 06 July)

Event Time Altitude Azimuth Distance (km) Brightness Sun altitude
Rises 03:54:20 0° 218° (SW) 2,751 - -13.2°
Reaches altitude 10° 03:57:31 10° 191° (S) 1,993 - -12.8°
Exits shadow 03:58:08 12° 184° (S) 1,916 8.1 -12.7°
Maximum altitude 03:59:50 14° 161° (SSE) 1,868 8.2 -12.5°
Drops below altitude 10° 04:02:22 10° 132° (SE) 2,231 8.9 -12.2°
Sets 04:06:20 0° 108° (ESE) 3,364 10.2 -11.7°
